GW4413 Weather Reports


Display with metric or nautical units.
time (UTC)temp
F
wind
direction
speed
MPH
gust
MPH
rain 1hr
in
rain 24hr
in
rain mn
in
humidity
%
barometer
mb
20260502182007 62 341 0.0 3.0 0.00 0.00 0.00 66 1017.8
20260502181527 61 38 1.0 2.0 0.00 0.00 0.00 67 1017.8
20260502181007 61 352 0.0 2.0 0.00 0.00 0.00 68 1017.8
20260502180503 61 298 0.0 2.0 0.00 0.00 0.00 69 1017.9
20260502170506 58 240 0.0 2.0 0.00 0.00 0.00 75 1018.4
20260502164010 57 292 0.0 2.0 0.00 0.00 0.00 78 1018.4
20260502163026 56 289 0.0 2.0 0.00 0.00 0.00 80 1018.3
20260502162510 56 235 0.0 2.0 0.00 0.00 0.00 81 1018.4
20260502162007 56 235 0.0 2.0 0.00 0.00 0.00 81 1018.4
20260502161524 55 235 0.0 1.0 0.00 0.00 0.00 82 1018.3
20260502160505 55 235 0.0 1.0 0.00 0.00 0.00 84 1018.1
20260502151527 51 235 0.0 0.0 0.00 0.00 0.00 91 1018.1
20260502151007 51 235 0.0 0.0 0.00 0.00 0.00 91 1018.0
20260502150512 50 235 0.0 0.0 0.00 0.00 0.00 91 1018.1
20260502130504 48 235 0.0 0.0 0.00 0.00 0.00 92 1017.7
20260502123512 48 235 0.0 0.0 0.00 0.00 0.00 91 1017.9
20260502123005 48 235 0.0 0.0 0.00 0.00 0.00 91 1017.8
20260502122502 48 235 0.0 0.0 0.00 0.00 0.00 91 1017.7
20260502122007 48 235 0.0 0.0 0.00 0.00 0.00 91 1017.8
20260502121504 48 235 0.0 0.0 0.00 0.00 0.00 91 1017.7
20260502121002 48 235 0.0 0.0 0.00 0.00 0.00 91 1017.7
20260502115503 49 235 0.0 0.0 0.00 0.00 0.00 90 1017.8
20260502115003 49 235 0.0 0.0 0.00 0.00 0.00 90 1017.6
20260502114504 49 235 0.0 0.0 0.00 0.00 0.00 90 1017.4
20260502114003 49 235 0.0 0.0 0.00 0.00 0.00 91 1017.5
20260502113503 49 235 0.0 0.0 0.00 0.00 0.00 90 1017.3
20260502112504 49 235 0.0 0.0 0.00 0.00 0.00 90 1017.2
20260502112009 49 235 0.0 0.0 0.00 0.00 0.00 90 1017.2
20260502111002 49 235 0.0 0.0 0.00 0.00 0.00 90 1017.2
20260502110006 49 235 0.0 0.0 0.00 0.00 0.00 90 1017.2
20260502105502 49 235 0.0 0.0 0.00 0.00 0.00 90 1017.2
20260502105005 49 235 0.0 0.0 0.00 0.00 0.00 89 1017.3
20260502104511 49 235 0.0 0.0 0.00 0.00 0.00 89 1017.3
20260502104004 49 235 0.0 0.0 0.00 0.00 0.00 89 1017.3
20260502103503 49 235 0.0 0.0 0.00 0.00 0.00 89 1017.3
20260502103011 49 235 0.0 0.0 0.00 0.00 0.00 89 1017.4
20260502102503 49 235 0.0 0.0 0.00 0.00 0.00 88 1017.4
20260502102007 49 235 0.0 0.0 0.00 0.00 0.00 88 1017.4
20260502101506 49 235 0.0 0.0 0.00 0.00 0.00 88 1017.4
20260502100503 50 235 0.0 0.0 0.00 0.00 0.00 88 1017.3
20260502091504 50 235 0.0 0.0 0.00 0.00 0.00 86 1017.1
20260502091008 50 235 0.0 0.0 0.00 0.00 0.00 86 1017.1
20260502090503 50 235 0.0 0.0 0.00 0.00 0.00 86 1017.2
20260502071514 52 235 0.0 0.0 0.00 0.00 0.00 82 1016.8
20260502071006 52 235 0.0 1.0 0.00 0.00 0.00 82 1016.8
20260502070013 53 235 0.0 1.0 0.00 0.00 0.00 82 1016.7
20260502065509 53 235 0.0 1.0 0.00 0.00 0.00 83 1016.8
20260502065012 53 235 0.0 1.0 0.00 0.00 0.00 82 1016.8
20260502064505 53 235 0.0 1.0 0.00 0.00 0.00 82 1016.8
20260502064012 53 235 0.0 1.0 0.00 0.00 0.00 82 1016.7
20260502063505 53 235 0.0 1.0 0.00 0.00 0.00 82 1016.7
20260502063006 53 235 0.0 1.0 0.00 0.00 0.00 82 1016.6
20260502062508 53 235 0.0 1.0 0.00 0.00 0.00 82 1016.6
20260502062007 54 235 0.0 2.0 0.00 0.00 0.00 82 1016.6
20260502061526 54 235 0.0 2.0 0.00 0.00 0.00 81 1016.6
20260502061005 54 235 0.0 2.0 0.00 0.00 0.00 79 1016.6
20260502060506 54 235 0.0 2.0 0.00 0.00 0.00 79 1016.5
20260502055507 54 235 0.0 2.0 0.00 0.00 0.00 78 1016.4
20260502054527 54 235 0.0 2.0 0.00 0.00 0.00 77 1016.5
20260502054006 54 235 1.0 2.0 0.00 0.00 0.00 77 1016.4
20260502053504 55 235 0.0 2.0 0.00 0.00 0.00 77 1016.4
20260502053026 55 235 0.0 2.0 0.00 0.00 0.00 77 1016.4
20260502052508 55 235 0.0 2.0 0.00 0.00 0.00 77 1016.4
20260502052004 55 235 0.0 2.0 0.00 0.00 0.00 77 1016.4
20260502051525 55 235 0.0 2.0 0.00 0.00 0.00 77 1016.3
20260502051007 55 235 0.0 2.0 0.00 0.00 0.00 77 1016.3
20260502050505 55 235 0.0 2.0 0.00 0.00 0.00 76 1016.2
20260502050024 55 235 1.0 2.0 0.00 0.00 0.00 76 1016.3
20260502045504 55 235 0.0 2.0 0.00 0.00 0.00 75 1016.3
20260502044506 56 235 0.0 2.0 0.00 0.00 0.00 75 1016.0
20260502044002 56 235 0.0 2.0 0.00 0.00 0.00 74 1016.0
20260502043507 56 235 0.0 2.0 0.00 0.00 0.00 73 1016.1
20260502043007 56 235 0.0 2.0 0.00 0.00 0.00 72 1016.0
20260502042005 56 235 1.0 3.0 0.00 0.00 0.00 72 1016.0
20260502041505 56 235 1.0 2.0 0.00 0.00 0.00 72 1016.0
20260502041002 56 235 0.0 3.0 0.00 0.00 0.00 72 1016.0
20260502040504 56 235 0.0 3.0 0.00 0.00 0.00 72 1015.9
20260502035503 56 235 0.0 2.0 0.00 0.00 0.00 71 1015.9
20260502035007 56 231 0.0 2.0 0.00 0.00 0.00 71 1015.9
20260502034509 57 231 1.0 3.0 0.00 0.00 0.00 71 1015.9
20260502034002 57 259 1.0 3.0 0.00 0.00 0.00 69 1015.8
20260502033009 57 260 0.0 3.0 0.00 0.00 0.00 69 1015.7
20260502032502 57 235 1.0 3.0 0.00 0.00 0.00 69 1015.9
20260502032006 57 235 0.0 2.0 0.00 0.00 0.00 69 1015.9
20260502031507 57 235 0.0 2.0 0.00 0.00 0.00 68 1015.8
20260502031002 57 235 0.0 2.0 0.00 0.00 0.00 69 1015.7
20260502030504 57 235 0.0 2.0 0.00 0.00 0.00 68 1015.7
20260502030006 57 246 0.0 2.0 0.00 0.00 0.00 69 1015.6
20260502025502 57 246 0.0 2.0 0.00 0.00 0.00 70 1015.6
20260502025003 57 264 0.0 2.0 0.00 0.00 0.00 71 1015.5
20260502024005 57 238 0.0 4.0 0.00 0.00 0.00 71 1015.5
20260502023504 57 230 0.0 4.0 0.00 0.00 0.00 72 1015.5
20260502023009 57 246 0.0 2.0 0.00 0.00 0.00 73 1015.4
20260502022503 57 246 0.0 2.0 0.00 0.00 0.00 73 1015.4
20260502022006 57 246 0.0 2.0 0.00 0.00 0.00 73 1015.4
20260502021508 57 246 0.0 2.0 0.00 0.00 0.00 74 1015.4
20260502021003 57 246 0.0 2.0 0.00 0.00 0.00 75 1015.4
20260502020507 57 246 0.0 2.0 0.00 0.00 0.00 76 1015.4
20260502020008 57 246 0.0 2.0 0.00 0.00 0.00 77 1015.5
20260502015504 57 246 0.0 2.0 0.00 0.00 0.00 77 1015.5
20260502015007 57 246 0.0 3.0 0.00 0.00 0.00 77 1015.5
20260502014002 57 237 0.0 2.0 0.00 0.00 0.00 75 1015.4
20260502013505 57 237 0.0 3.0 0.00 0.00 0.00 75 1015.5
20260502013005 57 237 0.0 3.0 0.00 0.00 0.00 75 1015.5
20260502012508 57 273 0.0 2.0 0.00 0.00 0.00 75 1015.5
20260502011507 57 273 0.0 2.0 0.00 0.00 0.00 72 1015.5
20260502011008 57 269 0.0 2.0 0.00 0.00 0.00 72 1015.5
20260502010504 57 269 0.0 2.0 0.00 0.00 0.00 72 1015.6
20260502010008 57 269 0.0 2.0 0.00 0.00 0.00 72 1015.5
20260502005510 57 269 0.0 2.0 0.00 0.00 0.00 72 1015.5
20260502005006 57 269 0.0 2.0 0.00 0.00 0.00 74 1015.6
20260502004508 57 269 0.0 2.0 0.00 0.00 0.00 73 1015.7
20260502004005 57 269 0.0 2.0 0.00 0.00 0.00 74 1015.7
20260502003503 57 282 0.0 2.0 0.00 0.00 0.00 76 1015.7
20260502002507 58 282 0.0 2.0 0.00 0.00 0.00 77 1015.7
20260502001506 58 282 0.0 3.0 0.00 0.00 0.00 77 1015.7
20260502001007 58 259 0.0 3.0 0.00 0.00 0.00 78 1015.8
20260502000504 58 5 0.0 2.0 0.00 0.00 0.00 79 1015.7
20260502000009 58 5 0.0 2.0 0.00 0.00 0.00 78 1015.7
20260501235008 57 319 0.0 1.0 0.00 0.00 0.00 80 1015.7
20260501234508 57 319 0.0 2.0 0.00 0.00 0.00 80 1015.8
20260501234006 58 319 0.0 2.0 0.00 0.00 0.00 80 1015.8
20260501233504 58 319 0.0 2.0 0.00 0.00 0.00 80 1015.9
20260501232512 58 320 0.0 2.0 0.00 0.00 0.00 81 1015.9
20260501232004 58 320 0.0 2.0 0.00 0.00 0.00 80 1016.0
20260501231008 58 320 0.0 1.0 0.00 0.00 0.00 82 1016.1
20260501230505 58 320 0.0 2.0 0.00 0.00 0.00 81 1016.2
20260501230007 58 320 0.0 2.0 0.00 0.00 0.00 80 1016.2
20260501225509 58 17 0.0 2.0 0.00 0.00 0.00 81 1016.3
20260501225004 58 347 0.0 2.0 0.00 0.00 0.00 81 1016.2
20260501224505 58 324 0.0 2.0 0.00 0.00 0.00 83 1016.3
20260501223506 58 155 0.0 2.0 0.00 0.00 0.00 82 1016.5
20260501223018 58 192 0.0 2.0 0.00 0.00 0.00 81 1016.5
20260501222506 59 192 0.0 2.0 0.00 0.00 0.00 80 1016.6
20260501222007 60 192 0.0 2.0 0.00 0.00 0.00 79 1016.7
20260501221008 62 98 0.0 2.0 0.00 0.00 0.00 67 1016.7
20260501220007 62 285 0.0 2.0 0.00 0.00 0.00 66 1016.8
20260501215508 62 338 0.0 3.0 0.00 0.00 0.00 66 1016.9
20260501215006 62 340 0.0 3.0 0.00 0.00 0.00 65 1016.9
20260501214521 62 326 1.0 3.0 0.00 0.00 0.00 65 1016.8
20260501213505 62 352 0.0 4.0 0.00 0.00 0.00 66 1016.9
20260501213008 62 302 0.0 3.0 0.00 0.00 0.00 66 1017.1
20260501212509 62 292 0.0 3.0 0.00 0.00 0.00 66 1017.0
20260501212007 62 298 1.0 3.0 0.00 0.00 0.00 65 1017.0
20260501211537 62 352 0.0 3.0 0.00 0.00 0.00 66 1016.9
20260501211013 62 309 0.0 3.0 0.00 0.00 0.00 67 1016.8
20260501210025 62 313 0.0 3.0 0.00 0.00 0.00 66 1017.0
20260501205507 62 347 0.0 2.0 0.00 0.00 0.00 67 1017.0
20260501205006 62 332 0.0 2.0 0.00 0.00 0.00 68 1016.9
20260501204528 61 332 0.0 2.0 0.00 0.00 0.00 68 1017.0
20260501204007 61 360 1.0 3.0 0.00 0.00 0.00 69 1017.0
20260501203504 61 29 0.0 3.0 0.00 0.00 0.00 68 1017.0
20260501203029 61 5 1.0 3.0 0.00 0.00 0.00 69 1017.0
20260501202510 61 227 0.0 3.0 0.00 0.00 0.00 68 1017.0
20260501202011 60 220 0.0 2.0 0.00 0.00 0.00 70 1017.0
20260501201527 60 346 0.0 2.0 0.00 0.00 0.00 70 1017.0
20260501201008 60 346 0.0 2.0 0.00 0.00 0.00 70 1017.0
20260501200505 60 348 1.0 2.0 0.00 0.00 0.00 70 1017.1
20260501200027 60 316 0.0 2.0 0.00 0.00 0.00 70 1017.1
20260501195503 60 57 0.0 2.0 0.00 0.00 0.00 68 1017.1
20260501195003 61 280 1.0 2.0 0.00 0.00 0.00 70 1017.1
20260501194506 61 279 0.0 2.0 0.00 0.00 0.00 69 1017.0
20260501194002 61 242 0.0 2.0 0.00 0.00 0.00 69 1017.1
20260501193503 61 333 0.0 2.0 0.00 0.00 0.00 70 1017.1
20260501193007 61 333 0.0 2.0 0.00 0.00 0.00 70 1017.2
20260501191506 61 346 1.0 2.0 0.00 0.00 0.00 70 1017.4
20260501191003 60 346 0.0 2.0 0.00 0.00 0.00 70 1017.4
20260501190502 60 346 0.0 2.0 0.00 0.00 0.00 70 1017.4
20260501185502 60 321 0.0 2.0 0.00 0.00 0.00 70 1017.4
20260501185003 60 360 0.0 2.0 0.00 0.00 0.00 71 1017.4
20260501184507 60 348 0.0 2.0 0.00 0.00 0.00 70 1017.5
20260501184003 60 348 0.0 2.0 0.00 0.00 0.00 71 1017.6
20260501183502 60 348 0.0 1.0 0.00 0.00 0.00 71 1017.6
20260501183011 60 348 0.0 1.0 0.00 0.00 0.00 73 1017.6